Location: Shepherdstown, WV
(39.4326°N, 77.8042°W)
Time: 22:18:34
(UTC-04:00)

Vanguard 1 Rocket - Pass Details

Date: 11 August 2021
Orbit: 650 x 4226 km, 34.3° (Epoch: 16 September)

Event Time Altitude Azimuth Distance (km) Brightness Sun altitude
Rises 14:53:30 0° 284° (WNW) 7,128 12.2 57.6°
Reaches altitude 10° 14:59:47 10° 276° (W) 5,473 11.9 56.7°
Maximum altitude 15:11:11 29° 224° (SW) 2,878 11.3 55.0°
Drops below altitude 10° 15:18:03 10° 168° (SSE) 3,209 10.5 53.9°
Sets 15:20:41 0° 155° (SSE) 3,844 10.7 53.5°
